TimeEDT,TemperatureF,Dew PointF,Humidity,Sea Level PressureIn,VisibilityMPH,Wind Direction,Wind SpeedMPH,Gust SpeedMPH,PrecipitationIn,Events,Conditions,WindDirDegrees,DateUTC
12:56 AM,77.0,73.0,88,30.25,10.0,SE,6.9,-,N/A,,Partly Cloudy,140,2013-07-15 04:56:00
1:56 AM,75.9,72.0,87,30.25,10.0,SE,6.9,-,N/A,,Partly Cloudy,140,2013-07-15 05:56:00
2:56 AM,77.0,71.1,82,30.25,10.0,SSE,4.6,-,N/A,,Scattered Clouds,150,2013-07-15 06:56:00
3:56 AM,75.0,71.1,87,30.25,10.0,SSE,6.9,-,N/A,,Clear,150,2013-07-15 07:56:00
4:56 AM,75.9,70.0,82,30.26,10.0,SSE,4.6,-,N/A,,Clear,160,2013-07-15 08:56:00
5:56 AM,73.9,70.0,87,30.27,10.0,ESE,5.8,-,N/A,,Clear,120,2013-07-15 09:56:00
6:56 AM,73.9,70.0,87,30.29,10.0,SE,4.6,-,N/A,,Partly Cloudy,140,2013-07-15 10:56:00
7:56 AM,77.0,71.1,82,30.30,10.0,SSE,3.5,-,N/A,,Clear,150,2013-07-15 11:56:00
8:56 AM,80.1,70.0,71,30.31,10.0,South,9.2,-,N/A,,Clear,180,2013-07-15 12:56:00
9:56 AM,82.9,69.1,63,30.31,10.0,SSW,9.2,-,N/A,,Clear,200,2013-07-15 13:56:00
10:56 AM,84.9,68.0,57,30.32,10.0,SW,6.9,-,N/A,,Clear,220,2013-07-15 14:56:00
11:56 AM,86.0,68.0,55,30.32,10.0,SW,6.9,-,N/A,,Clear,220,2013-07-15 15:56:00
12:56 PM,86.0,68.0,55,30.31,10.0,Calm,Calm,-,N/A,,Scattered Clouds,0,2013-07-15 16:56:00
1:56 PM,87.1,70.0,57,30.30,10.0,North,5.8,-,N/A,,Mostly Cloudy,350,2013-07-15 17:56:00
2:56 PM,88.0,69.1,53,30.30,10.0,Calm,Calm,-,N/A,,Mostly Cloudy,0,2013-07-15 18:56:00
3:56 PM,88.0,69.1,53,30.28,10.0,WNW,4.6,-,N/A,,Mostly Cloudy,290,2013-07-15 19:56:00
4:56 PM,90.0,70.0,52,30.27,10.0,North,4.6,-,N/A,,Mostly Cloudy,360,2013-07-15 20:56:00
5:56 PM,89.1,70.0,53,30.26,10.0,NE,4.6,-,N/A,,Mostly Cloudy,50,2013-07-15 21:56:00
6:56 PM,88.0,69.1,53,30.25,10.0,North,5.8,-,N/A,,Mostly Cloudy,10,2013-07-15 22:56:00
7:56 PM,87.1,71.1,59,30.25,10.0,North,4.6,-,N/A,,Scattered Clouds,10,2013-07-15 23:56:00
8:56 PM,84.0,70.0,63,30.25,10.0,East,3.5,-,N/A,,Partly Cloudy,80,2013-07-16 00:56:00
9:56 PM,81.0,70.0,69,30.27,10.0,SE,5.8,-,N/A,,Clear,130,2013-07-16 01:56:00
10:56 PM,81.0,70.0,69,30.29,10.0,SSE,4.6,-,N/A,,Clear,150,2013-07-16 02:56:00
11:56 PM,79.0,70.0,74,30.30,10.0,Calm,Calm,-,N/A,,Clear,0,2013-07-16 03:56:00